Quillayute, WA

11:23 PM PDT on May 24, 2018 (GMT -0700)
Quillayute

Weather History for KUIL - March, 2012

Change the Weather History Date:

Monday, March 12, 2012

  Actual Average Record
Temperature  
Mean Temperature 37 °F 44 °F  
Max Temperature 40 °F 51 °F 71 °F (2018)
Min Temperature 33 °F 37 °F 23 °F (1969)
Degree Days  
Heating Degree Days 28 21  
Month to date heating degree days 260  
Since 1 July heating degree days 4105  
Cooling Degree Days 0 0  
Month to date cooling degree days 0  
Year to date cooling degree days 0  
Moisture  
Dew Point 35 °F    
Average Humidity 95    
Maximum Humidity 100    
Minimum Humidity 79    
Precipitation  
Precipitation 2.17 in 0.35 in 5.47 in (2013)
Month to date precipitation 4.31  
Year to date precipitation 29.27  
Sea Level Pressure  
Sea Level Pressure 29.28 in    
Wind  
Wind Speed 10 mph (SSE)    
Max Wind Speed 29 mph    
Max Gust Speed 51 mph    
Visibility 5 miles    
Events Rain , Snow    
T = Trace of Precipitation, MM = Missing Value Source: NWS Daily Summary

Daily Weather History Graph

Daily Weather History Graph

Search for Another Location

Airport or City:

Astronomy

Mar. 12, 2012 Rise Set
Actual Time 7:36 AM PDT 7:20 PM PDT
Civil Twilight 7:05 AM PDT 7:51 PM PDT
Nautical Twilight 6:29 AM PDT 8:27 PM PDT
Astronomical Twilight 5:52 AM PDT 9:03 PM PDT
Moon 12:15 AM PDT (3/12) 9:35 AM PDT (3/12)
Length of Visible Light 12h 45m
Length of Day
11h 44m
Waning Gibbous, 75% of the Moon is Illuminated
Mar 12
Waning Gibbous
Mar 14
Last Quarter
Mar 22
New
Mar 30
First Quarter
Apr 6
Full

Hourly Weather History & Observations

Time (PDT) Temp. Windchill Dew Point Humidity Pressure Visibility Wind Dir Wind Speed Gust Speed Precip Events Conditions
12:06 AM 39.2 °F 31.2 °F 37.4 °F 93% 29.51 in 4.0 mi South 13.8 mph 27.6 mph 0.02 in Rain Rain
12:53 AM 39.9 °F 32.1 °F 39.0 °F 97% 29.48 in 4.0 mi SE 13.8 mph 21.9 mph 0.15 in Rain Rain
1:11 AM 35.6 °F 27.1 °F 33.8 °F 93% 29.47 in 1.8 mi SE 12.7 mph 23.0 mph 0.08 in Snow Light Snow
1:20 AM 33.8 °F 25.8 °F 33.8 °F 100% 29.47 in 1.0 mi SE 10.4 mph - 0.12 in Snow Light Snow
1:53 AM 34.0 °F 25.0 °F 33.1 °F 96% 29.44 in 1.0 mi SE 12.7 mph 19.6 mph 0.21 in Snow Light Snow
2:08 AM 33.8 °F 24.3 °F 33.8 °F 100% 29.42 in 1.5 mi SSE 13.8 mph 21.9 mph 0.05 in Snow Light Snow
2:22 AM 33.8 °F 24.3 °F 33.8 °F 100% 29.41 in 2.0 mi SE 13.8 mph 26.5 mph 0.08 in Snow Light Snow
2:53 AM 35.1 °F 25.5 °F 34.0 °F 96% 29.38 in 2.5 mi SE 15.0 mph 25.3 mph 0.16 in Snow Light Snow
3:27 AM 35.6 °F 26.2 °F 33.8 °F 93% 29.34 in 3.0 mi SSE 15.0 mph 24.2 mph 0.10 in Snow Light Snow
3:36 AM 35.6 °F 27.1 °F 33.8 °F 93% 29.33 in 2.5 mi SSE 12.7 mph 27.6 mph 0.12 in Rain Rain
3:45 AM 35.6 °F 26.6 °F 33.8 °F 93% 29.32 in 3.0 mi SSE 13.8 mph 25.3 mph 0.14 in Snow Light Snow
3:53 AM 35.1 °F 25.5 °F 34.0 °F 96% 29.31 in 2.5 mi SE 15.0 mph 27.6 mph 0.17 in Rain Rain
4:01 AM 35.6 °F 25.5 °F 33.8 °F 93% 29.31 in 3.0 mi SSE 17.3 mph 33.4 mph 0.01 in Rain Rain
4:32 AM 35.6 °F 26.2 °F 35.6 °F 100% 29.27 in 4.0 mi SSE 15.0 mph 39.1 mph 0.09 in Rain Light Rain
4:53 AM 36.0 °F 26.7 °F 35.1 °F 97% 29.24 in 4.0 mi SE 15.0 mph 38.0 mph 0.14 in Rain Rain
5:53 AM 37.0 °F 26.4 °F 35.1 °F 93% 29.17 in 3.0 mi SE 20.7 mph 44.9 mph 0.17 in Rain Rain
6:23 AM 37.4 °F 26.4 °F 35.6 °F 93% 29.16 in 2.5 mi SSE 23.0 mph 43.7 mph 0.10 in Rain Rain
6:53 AM 37.0 °F 26.7 °F 35.1 °F 93% 29.16 in 1.8 mi SSE 19.6 mph 50.6 mph 0.24 in Rain Rain
7:04 AM 35.6 °F 25.5 °F 35.6 °F 100% 29.15 in 2.0 mi SSE 17.3 mph 38.0 mph 0.06 in Rain Rain
7:19 AM 37.4 °F 27.8 °F 35.6 °F 93% 29.15 in 4.0 mi SSE 17.3 mph 50.6 mph 0.11 in Rain Rain
7:53 AM 37.0 °F 27.4 °F 35.1 °F 93% 29.17 in 3.0 mi South 17.3 mph 41.4 mph 0.20 in Rain Rain
8:00 AM - - - N/A% - - North - - N/A   Unknown
8:18 AM 37.4 °F 27.2 °F 35.6 °F 93% 29.16 in 3.0 mi SSE 19.6 mph 31.1 mph 0.08 in Rain Light Rain
8:26 AM 35.6 °F 25.5 °F 35.6 °F 100% 29.16 in 3.0 mi SSE 17.3 mph 31.1 mph 0.09 in Rain Rain
8:34 AM 35.6 °F 24.8 °F 35.6 °F 100% 29.16 in 2.0 mi SSE 19.6 mph 35.7 mph 0.12 in Rain Rain
8:44 AM 35.6 °F 24.0 °F 33.8 °F 93% 29.17 in 1.2 mi SSE 23.0 mph 36.8 mph 0.16 in Snow Light Snow
8:53 AM 35.1 °F 26.4 °F 34.0 °F 96% 29.19 in 1.0 mi South 12.7 mph 31.1 mph 0.20 in Snow Light Snow
9:00 AM 35.6 °F 25.9 °F 35.6 °F 100% 29.18 in 2.0 mi South 16.1 mph 29.9 mph 0.02 in Snow Light Snow
9:09 AM 35.6 °F 27.1 °F 35.6 °F 100% 29.18 in 3.0 mi South 12.7 mph 32.2 mph 0.03 in Rain Light Rain
9:17 AM 35.6 °F 27.5 °F 33.8 °F 93% 29.19 in 1.8 mi South 11.5 mph 24.2 mph 0.05 in Snow Light Snow
9:38 AM 35.6 °F 27.1 °F 35.6 °F 100% 29.19 in 3.0 mi SE 12.7 mph 27.6 mph 0.10 in Rain Light Rain
9:53 AM 36.0 °F 29.6 °F 35.1 °F 97% 29.19 in 10.0 mi SSE 8.1 mph 23.0 mph 0.10 in Rain Light Rain
10:30 AM 39.2 °F 30.8 °F 37.4 °F 93% 29.23 in 2.5 mi South 15.0 mph 28.8 mph 0.04 in Rain Light Rain
10:39 AM 39.2 °F 31.2 °F 37.4 °F 93% 29.25 in 6.0 mi South 13.8 mph 28.8 mph 0.04 in Rain Light Rain
10:53 AM 39.0 °F 32.3 °F 37.9 °F 96% 29.25 in 9.0 mi South 10.4 mph 23.0 mph 0.04 in   Overcast
11:53 AM 39.0 °F 33.4 °F 37.9 °F 96% 29.27 in 10.0 mi SSE 8.1 mph 19.6 mph 0.01 in   Mostly Cloudy
12:03 PM 39.2 °F 33.6 °F 37.4 °F 93% 29.27 in 10.0 mi SE 8.1 mph - N/A   Overcast
12:14 PM 39.2 °F 34.2 °F 37.4 °F 93% 29.28 in 10.0 mi SE 6.9 mph - N/A   Overcast
12:36 PM 39.2 °F 32.5 °F 37.4 °F 93% 29.28 in 10.0 mi SSE 10.4 mph - N/A   Mostly Cloudy
12:53 PM 39.0 °F 33.4 °F 37.0 °F 93% 29.28 in 10.0 mi SSE 8.1 mph - N/A   Mostly Cloudy
1:14 PM 39.2 °F 31.2 °F 37.4 °F 93% 29.28 in 10.0 mi SSE 13.8 mph 19.6 mph N/A   Overcast
1:35 PM 39.2 °F 32.0 °F 37.4 °F 93% 29.28 in 10.0 mi SSE 11.5 mph 20.7 mph N/A   Overcast
1:48 PM 39.2 °F 31.6 °F 37.4 °F 93% 29.28 in 10.0 mi SE 12.7 mph 18.4 mph 0.00 in Rain Light Rain
1:53 PM 39.0 °F 33.4 °F 37.0 °F 93% 29.29 in 10.0 mi SSE 8.1 mph 18.4 mph 0.00 in   Overcast
2:13 PM 39.2 °F 32.5 °F 37.4 °F 93% 29.28 in 4.0 mi SSE 10.4 mph 19.6 mph 0.00 in Rain Light Rain
2:22 PM 39.2 °F 33.6 °F 37.4 °F 93% 29.28 in 7.0 mi SSE 8.1 mph 18.4 mph 0.01 in Rain Light Rain
2:53 PM 37.9 °F 30.9 °F 37.0 °F 97% 29.28 in 4.0 mi SSE 10.4 mph 18.4 mph 0.03 in Rain Light Rain
3:18 PM 37.4 °F 32.1 °F 37.4 °F 100% 29.27 in 2.5 mi Variable 6.9 mph 19.6 mph 0.05 in Rain Rain
3:30 PM 37.4 °F 30.3 °F 37.4 °F 100% 29.28 in 3.0 mi SSE 10.4 mph 16.1 mph 0.06 in Rain Light Rain
3:53 PM 37.0 °F 32.4 °F 36.0 °F 96% 29.28 in 4.0 mi SSE 5.8 mph - 0.11 in Rain Light Rain
4:16 PM 35.6 °F 30.7 °F 35.6 °F 100% 29.28 in 2.5 mi Variable 5.8 mph - 0.05 in Rain Rain
4:19 PM 35.6 °F 29.2 °F 35.6 °F 100% 29.28 in 3.0 mi South 8.1 mph - 0.06 in Rain Light Rain
4:45 PM 35.6 °F 29.2 °F 35.6 °F 100% 29.28 in 2.5 mi South 8.1 mph - 0.10 in Rain Rain
4:53 PM 36.0 °F 28.5 °F 35.1 °F 97% 29.29 in 2.0 mi South 10.4 mph 18.4 mph 0.11 in Rain Light Rain
5:34 PM 35.6 °F 31.7 °F 33.8 °F 93% 29.28 in 1.2 mi Variable 4.6 mph - 0.08 in Snow Light Snow
5:45 PM 35.6 °F 29.9 °F 33.8 °F 93% 29.28 in 1.8 mi Variable 6.9 mph - 0.09 in Snow Light Snow
5:53 PM 34.0 °F 27.2 °F 34.0 °F 100% 29.29 in 1.0 mi South 8.1 mph - 0.11 in Snow Light Snow
6:04 PM 33.8 °F 27.7 °F 33.8 °F 100% 29.28 in 1.5 mi Variable 6.9 mph - 0.02 in Snow Light Snow
6:07 PM 33.8 °F 27.7 °F 33.8 °F 100% 29.28 in 3.0 mi SSE 6.9 mph - 0.03 in Snow Light Snow
6:33 PM 35.6 °F 30.7 °F 33.8 °F 93% 29.29 in 10.0 mi Variable 5.8 mph - 0.03 in   Overcast
6:40 PM 35.6 °F 31.7 °F 33.8 °F 93% 29.29 in 10.0 mi Variable 4.6 mph - 0.03 in   Mostly Cloudy
6:53 PM 35.1 °F 31.0 °F 34.0 °F 96% 29.29 in 10.0 mi Variable 4.6 mph - 0.03 in   Partly Cloudy
7:29 PM 35.6 °F 28.6 °F 33.8 °F 93% 29.29 in 2.5 mi West 9.2 mph - 0.02 in Rain Heavy Rain
7:40 PM 35.6 °F 30.7 °F 33.8 °F 93% 29.28 in 3.0 mi South 5.8 mph - 0.14 in Rain Light Rain
7:53 PM 36.0 °F 32.1 °F 35.1 °F 97% 29.29 in 6.0 mi Variable 4.6 mph - 0.17 in Rain Light Rain
8:08 PM 35.6 °F 29.9 °F 35.6 °F 100% 29.30 in 10.0 mi SSE 6.9 mph - 0.00 in   Overcast
8:22 PM 35.6 °F 30.7 °F 35.6 °F 100% 29.29 in 9.0 mi Variable 5.8 mph - 0.00 in Rain Light Rain
8:53 PM 37.0 °F 31.6 °F 34.0 °F 89% 29.31 in 10.0 mi SW 6.9 mph - 0.00 in Rain Light Rain
9:53 PM 37.0 °F 29.3 °F 30.9 °F 79% 29.32 in 10.0 mi SW 11.5 mph - 0.00 in   Clear
10:53 PM 37.0 °F 31.6 °F 32.0 °F 82% 29.33 in 10.0 mi WSW 6.9 mph - N/A   Partly Cloudy
11:53 PM 36.0 °F 32.1 °F 32.0 °F 86% 29.34 in 10.0 mi WSW 4.6 mph - N/A   Clear